Location: Kawakawa
(35.3830°S, 174.0670°E)
Time: 01:27:04
(UTC+13:00)

Cosmos 2360 Rocket - Pass Details

Date: 24 January 2019
Orbit: 833 x 846 km, 71.0° (Epoch: 22 February)

Event Time Altitude Azimuth Distance (km) Brightness Sun altitude
Exits shadow 22:43:34 11° 337° (NNW) 2,388 4.3 -21.8°
Maximum altitude 22:49:03 82° 250° (WSW) 865 2.2 -22.6°
Drops below altitude 10° 22:54:48 10° 161° (SSE) 2,493 5.0 -23.4°
Sets 22:57:16 0° 159° (SSE) 3,434 5.7 -23.7°
